Location: Dal�� Lhota
(48.7500°N, 14.0167°E)
Time: 09:31:38
(UTC+00:00)

Explorer 7 - Pass Details

Date: 10 August 2021
Orbit: 484 x 676 km, 50.3° (Epoch: 21 September)

Event Time Altitude Azimuth Distance (km) Brightness Sun altitude
Rises 07:35:33 0° 279° (W) 2,631 9.8 35.4°
Reaches altitude 10° 07:39:04 10° 245° (WSW) 1,783 9.2 35.9°
Maximum altitude 07:40:28 12° 225° (SW) 1,700 9.2 36.1°
Drops below altitude 10° 07:41:54 10° 205° (SSW) 1,817 9.5 36.4°
Sets 07:45:36 0° 172° (S) 2,762 10.7 36.9°
